EHI
95 92 90 79 53 23 5 0 0 0 0 0 0 0 0 0 0 1 2 1 0 0 0 0 1 1 1 3 6 10 14 19 28 37 42 49 54 49 32 16 8 5 4
96 94 92 84 60 29 8 1 0 0 0 0 0 0 0 1 1 2 2 1 0 0 0 0 0 0 1 2 4 5 6 9 14 19 24 29 37 40 33 26 19 10 6
97 95 94 88 69 39 15 4 1 1 2 3 3 2 2 2 2 2 3 3 1 0 0 0 0 0 0 1 1 1 0 1 2 3 5 8 14 23 31 35 29 15 6
92 93 95 91 77 52 27 10 5 4 5 7 7 6 5 3 1 1 3 3 2 0 0 0 0 0 0 0 0 0 0 0 0 0 1 2 4 12 24 30 25 12 4
86 91 96 94 85 66 43 25 15 12 12 13 13 11 9 7 5 3 3 2 1 0 0 0 0 0 0 0 0 0 0 0 0 1 2 3 4 8 14 16 11 5 1
82 89 97 97 92 79 60 43 31 25 24 26 25 21 21 21 17 11 4 1 0 0 0 0 0 0 0 0 0 0 0 0 0 1 3 5 5 6 6 5 3 1 0
80 87 95 99 96 87 72 57 47 43 44 47 45 40 39 38 30 19 7 2 0 0 0 0 0 0 0 0 0 0 0 0 1 4 9 12 11 9 5 3 2 1 0
80 84 90 94 92 85 76 67 60 58 61 62 58 54 51 45 34 20 8 2 0 0 0 0 0 0 0 0 0 0 0 1 1 6 16 19 18 15 10 6 4 1 0
79 75 74 77 79 75 70 66 63 61 62 61 57 53 47 38 27 16 6 1 0 0 0 0 0 0 0 0 0 0 0 1 2 8 15 21 25 22 13 7 4 1 0
74 60 48 48 52 51 48 49 49 48 47 46 43 38 32 22 14 8 3 2 1 0 0 0 0 0 0 0 0 0 0 1 3 8 16 26 34 28 15 7 3 1 0
71 49 24 18 22 22 21 23 25 25 24 23 21 19 14 7 3 6 12 12 5 1 0 0 0 0 0 0 0 0 0 0 2 9 21 38 46 34 17 8 3 1 0
72 43 14 5 5 5 7 9 7 6 6 5 5 4 3 1 2 13 28 25 10 2 0 0 0 0 0 0 0 0 0 0 2 9 27 50 56 40 23 12 5 1 0
68 41 16 8 4 5 8 6 2 1 1 2 3 2 0 0 5 17 26 22 9 2 1 1 1 0 0 0 0 0 0 0 3 12 33 58 63 46 27 15 6 2 0
62 42 26 23 18 21 24 14 6 6 5 8 11 7 1 0 4 11 15 11 5 3 4 4 2 1 1 0 0 0 0 1 4 15 36 58 63 48 30 17 8 3 1
63 49 44 48 46 49 51 34 18 15 13 16 22 15 4 1 3 9 15 14 8 9 15 12 6 4 4 2 1 1 2 3 7 14 29 47 55 48 34 21 11 6 4
73 65 63 71 73 74 70 54 33 22 18 23 31 27 13 7 12 20 27 26 19 21 30 28 18 14 13 8 5 4 4 7 11 13 18 29 42 45 38 28 19 12 8
84 80 77 81 84 83 76 62 43 26 21 30 41 42 31 23 32 43 46 43 37 37 47 47 36 29 25 18 15 12 12 15 17 16 14 16 25 33 36 33 28 21 15
89 89 86 84 86 86 78 65 47 33 33 44 55 60 54 48 56 65 63 57 55 57 61 58 50 43 35 31 27 24 24 26 23 19 16 13 14 19 26 31 31 27 22
91 91 89 86 86 86 80 69 53 46 52 63 73 78 76 69 72 77 73 68 68 70 67 61 57 53 47 40 33 29 30 29 23 17 14 12 10 11 14 18 21 22 20
92 91 89 87 86 85 81 72 62 59 68 77 84 89 86 80 79 79 75 73 74 71 65 61 58 56 53 43 28 21 20 19 15 11 8 7 6 5 4 5 8 9 10
93 90 86 84 85 85 80 75 71 70 76 83 87 89 87 83 81 77 72 70 71 67 60 56 53 51 47 36 21 11 7 5 5 4 3 2 2 1 0 0 1 2 3
93 88 80 77 81 81 77 75 77 78 81 84 85 85 85 82 78 72 65 62 62 58 51 45 44 43 37 25 14 7 2 1 1 1 0 0 0 0 0 0 0 0 1
89 84 77 74 75 74 71 71 77 82 83 82 83 81 77 74 70 63 55 52 50 46 40 35 34 33 27 17 9 4 2 1 0 0 0 0 0 0 0 0 0 0 0
79 79 78 75 73 72 71 71 76 80 80 78 79 75 66 60 56 49 42 38 36 33 30 27 25 21 17 11 5 2 1 1 0 0 0 0 0 0 0 0 0 0 0
63 66 69 70 69 68 67 69 70 71 69 67 68 65 54 43 37 31 26 23 22 21 21 19 16 12 8 6 3 1 0 0 0 0 0 0 0 0 0 0 0 0 0
50 52 56 59 62 62 59 60 62 61 57 56 57 55 45 31 23 19 15 13 14 14 14 12 9 6 5 4 2 1 0 0 0 0 0 0 0 0 0 0 0 0 0
Wind_Speed
20 20 20 19 19 18 17 16 15 14 13 12 12 11 12 12 12 13 13 13 12 12 12 12 11 12 12 13 13 14 14 14 14 15 16 15 14 12 11 11 13 13 15
23 20 20 19 19 18 18 16 15 14 13 12 12 11 11 12 12 12 12 12 12 12 12 11 11 11 11 11 11 11 11 11 11 12 14 14 13 12 10 10 13 10 13
22 19 19 19 19 19 18 17 16 15 14 12 11 11 11 11 11 12 12 11 11 11 11 11 10 10 10 10 10 9 8 7 7 8 9 9 10 12 13 15 15 13 12
21 18 17 19 19 19 18 17 16 15 15 13 12 11 11 11 11 11 11 11 10 10 10 10 10 9 9 8 8 7 5 3 2 3 2 5 8 12 13 13 13 12 11
19 17 18 19 19 18 18 18 17 16 15 13 12 12 11 11 11 11 11 10 10 9 9 9 9 8 8 7 6 4 2 0 2 4 2 7 8 11 12 12 12 11 10
19 18 17 18 19 18 18 18 17 16 15 14 13 12 11 11 11 11 10 10 9 9 8 8 8 7 6 5 4 1 1 3 6 2 4 8 8 10 11 11 11 10 10
19 18 17 17 18 18 18 17 17 16 15 14 13 12 11 11 10 10 10 10 9 9 8 7 7 6 5 4 2 1 3 6 7 1 4 9 9 11 11 10 10 10 9
20 19 16 17 18 18 17 17 16 15 15 14 13 12 11 11 10 10 10 9 9 8 7 7 6 5 4 3 2 2 5 8 5 2 7 10 11 11 10 10 9 9 9
21 19 16 15 16 17 17 16 16 15 14 13 13 12 12 11 11 10 10 9 9 8 7 7 6 5 4 3 3 3 6 8 8 2 9 8 12 12 11 9 9 9 8
19 18 16 15 15 14 14 16 16 15 14 14 13 13 12 11 11 11 10 9 9 8 7 6 6 5 5 4 5 5 7 8 7 2 6 9 13 12 11 10 9 8 8
17 17 16 16 15 14 14 14 14 14 13 13 12 12 11 9 9 9 10 11 9 8 7 7 6 6 6 7 7 7 7 5 2 3 6 13 14 13 11 10 9 8 8
17 17 16 16 16 15 13 12 9 10 10 9 9 10 7 6 6 8 13 13 11 9 8 8 8 8 7 6 8 8 5 7 2 4 7 16 14 13 11 10 9 8 8
18 16 16 15 14 13 11 11 8 7 8 8 9 9 6 5 4 7 7 7 7 9 7 7 8 7 7 5 5 6 7 4 2 4 9 15 14 14 12 11 10 9 8
18 17 15 16 12 11 12 10 8 7 7 7 7 8 6 3 3 5 5 7 7 6 6 6 6 7 6 3 3 5 5 3 3 5 9 15 14 14 13 12 11 10 8
17 15 15 14 11 7 8 8 8 6 8 7 6 7 6 4 4 3 3 3 4 4 5 5 5 4 3 2 3 4 3 1 3 6 7 14 14 13 13 13 12 10 9
15 13 12 13 12 8 7 5 5 6 6 7 7 8 7 5 4 2 2 2 2 1 1 2 2 1 1 2 3 3 1 1 2 6 7 9 13 13 13 13 12 12 11
14 12 10 11 12 10 9 7 5 4 6 5 6 8 7 5 3 3 2 2 2 2 1 1 2 1 2 3 3 2 1 1 1 4 6 5 7 10 11 11 12 12 11
14 12 11 12 13 10 7 7 5 5 5 5 5 5 7 6 4 3 2 2 2 1 1 1 2 2 2 2 1 1 1 1 1 2 4 4 5 6 8 10 11 11 11
13 12 10 9 12 11 9 6 5 4 3 3 4 4 5 5 4 4 2 2 2 2 1 3 2 2 2 1 1 0 1 2 1 1 2 3 4 5 5 8 11 11 11
12 11 9 8 9 10 8 5 4 4 3 3 3 3 5 4 5 4 3 3 3 2 2 2 2 1 1 1 2 0 1 1 1 0 1 2 3 5 6 6 6 6 10
11 10 8 8 8 7 6 6 5 4 3 3 3 4 5 4 4 4 3 3 3 3 3 3 2 3 2 1 1 1 1 1 0 0 0 1 2 3 4 5 4 4 4
9 8 8 6 7 7 5 4 4 4 4 3 3 3 4 4 4 4 3 2 2 2 3 4 3 2 2 2 2 2 1 1 2 1 1 1 2 2 3 5 3 4 4
6 5 5 5 5 6 6 4 4 3 3 3 3 3 3 3 3 2 2 2 2 2 3 4 4 5 3 3 3 3 3 4 2 1 1 1 1 1 1 2 3 3 4
6 5 5 4 3 3 3 4 5 5 4 4 3 3 3 3 3 2 1 1 0 0 1 3 2 2 3 3 2 2 1 1 2 2 1 1 1 1 1 1 2 3 4
9 7 6 6 5 3 2 2 2 2 1 2 3 4 4 5 5 5 5 4 3 3 3 3 3 2 0 1 1 1 1 0 0 2 2 2 1 1 1 1 1 2 4
13 11 9 9 8 7 5 4 3 3 2 3 3 5 5 5 5 7 7 6 6 5 6 6 5 6 5 4 3 3 2 1 1 1 1 1 1 1 1 1 1 1 2
Wind_Direction
127 131 134 137 138 138 136 135 134 133 130 125 120 113 107 103 99 96 95 95 96 96 95 93 90 84 79 75 75 77 79 81 85 88 89 88 87 86 90 105 104 94 96
127 131 134 137 140 140 139 138 138 136 134 131 126 121 115 109 104 102 100 99 99 99 98 96 94 91 87 83 81 81 83 87 93 102 105 97 88 80 77 83 93 102 101
125 131 134 137 141 142 142 141 140 139 138 136 131 125 119 113 109 106 105 104 103 102 102 100 98 95 91 88 87 87 90 96 108 126 132 108 97 85 86 91 97 102 101
129 137 135 138 142 144 144 143 142 143 143 139 134 129 123 118 114 111 109 107 106 105 105 104 102 98 95 92 92 94 98 105 130 177 169 114 107 95 93 95 98 100 100
134 132 130 139 141 144 144 145 145 146 145 142 138 134 128 123 119 116 114 111 110 109 109 107 105 103 99 97 97 100 101 317 278 255 112 97 96 105 102 102 103 103 103
134 127 133 137 140 143 144 147 148 148 147 145 142 138 131 126 123 121 120 119 118 116 115 113 110 108 106 104 104 102 301 298 289 251 131 118 111 115 112 111 109 108 107
131 128 133 135 138 142 144 147 149 149 148 146 143 139 134 130 127 126 127 127 126 124 123 121 119 116 115 117 124 258 287 292 278 287 126 111 116 123 120 116 114 112 110
129 129 131 134 137 141 145 147 148 148 148 146 143 140 136 133 132 133 134 134 133 132 131 130 129 128 128 135 166 258 280 289 289 124 117 112 127 127 124 121 120 117 115
130 132 140 140 140 141 143 145 147 147 147 146 144 142 140 139 140 141 141 141 140 141 142 142 145 147 153 169 202 250 273 284 292 174 122 120 132 131 130 127 125 121 117
134 138 146 148 145 146 145 147 149 149 149 148 148 148 147 147 150 152 153 149 150 153 155 158 163 171 183 199 216 240 263 283 273 139 117 133 136 136 137 136 133 128 123
139 143 154 154 153 155 152 150 152 153 151 151 155 156 158 170 170 172 165 153 162 167 172 178 187 196 203 213 223 235 252 255 252 109 114 138 140 141 144 144 141 137 132
147 153 161 159 160 163 155 149 160 166 161 175 170 170 190 200 186 174 149 161 171 179 188 199 207 215 223 215 216 227 242 237 198 138 138 148 145 147 150 151 149 146 143
155 163 164 161 165 164 149 157 168 174 165 194 177 178 205 211 179 143 156 164 179 190 201 200 211 224 223 218 186 202 234 245 161 131 147 152 150 152 156 158 158 157 155
162 169 164 161 166 166 153 162 167 174 166 187 173 182 200 214 207 170 177 175 185 197 204 190 216 219 231 232 209 218 229 227 140 130 153 156 154 158 162 164 165 164 163
166 171 163 163 160 157 145 162 171 175 171 181 171 187 201 196 216 204 190 181 202 194 181 202 228 219 210 230 247 243 246 241 136 132 148 161 159 162 166 168 170 169 167
164 168 160 158 153 150 146 162 162 173 167 175 169 183 199 212 198 196 189 183 250 279 178 208 237 216 212 247 257 267 268 262 132 137 151 164 164 165 169 172 173 171 169
159 159 152 154 153 155 160 176 170 177 171 175 174 179 185 212 196 179 213 184 219 249 228 279 297 285 245 235 232 248 248 278 101 116 138 155 164 168 170 172 172 172 173
157 153 157 167 158 158 166 178 183 191 180 175 171 171 179 202 187 176 206 213 204 230 221 232 264 269 270 277 264 235 208 90 67 111 129 155 160 163 170 171 169 169 170
148 149 158 166 159 166 173 178 200 192 183 170 164 163 173 192 194 180 205 214 196 200 220 245 222 229 257 269 285 289 53 49 44 118 118 138 138 151 156 163 164 166 170
140 145 156 165 158 163 171 177 202 205 182 176 167 161 166 180 195 190 202 209 203 203 207 231 252 233 238 242 260 267 61 63 42 19 143 127 141 154 158 163 162 166 171
135 144 158 174 162 164 174 183 191 200 192 181 180 168 168 178 189 188 217 204 196 209 214 213 218 221 228 209 174 74 22 3 85 131 107 130 145 154 157 160 165 161 163
133 147 159 172 171 177 178 181 184 190 190 185 180 168 165 170 178 195 206 214 212 219 230 224 214 216 216 192 181 147 200 226 238 204 167 165 154 155 166 167 166 154 151
108 127 158 164 167 180 180 176 184 179 185 192 172 154 145 142 153 181 197 212 240 240 246 239 221 213 210 204 190 180 195 210 164 166 230 158 134 145 157 145 146 147 143
65 82 83 99 118 146 167 188 197 198 199 193 157 139 132 118 112 99 62 28 279 295 304 300 280 245 220 209 197 189 162 121 163 170 205 198 168 150 131 145 140 135 122
40 52 65 71 69 80 109 141 175 199 180 137 119 118 96 72 68 70 62 49 41 47 55 45 25 24 341 201 167 140 140 83 78 156 178 174 185 170 139 105 100 130 134
36 44 49 54 51 49 59 61 71 80 81 98 106 104 85 67 53 55 62 56 48 47 54 57 54 52 51 56 58 60 74 95 110 134 145 150 172 150 135 115 112 110 116